Location: Les Salelles
(44.4192°N, 4.1044°E)
Time: 18:38:03
(UTC+00:00)

USA 234 - Pass Details

Date: 20 January 2021
Orbit: 1100 x 1107 km, 123.0° (Epoch: 01 March)

Event Time Altitude Azimuth Distance (km) Brightness Sun altitude
Exits shadow 20:27:37 35° 313° (NW) 1,702 4.5 -40.8°
Drops below altitude 10° 20:31:07 10° 311° (NW) 2,966 6.0 -41.4°
Sets 20:33:37 0° 311° (NW) 3,927 6.8 -41.9°
